THURAYA-2

Last updated on Thu Oct 30 2025 00:02:47 GMT+0000 (Coordinated Universal Time)

1 27825U 03026A 25301.90886178 .00000138 00000+0 00000+0 0 9993 2 27825 8.4751 32.8590 0001970 229.7639 146.0861 1.00270679 82034
UTC large
Height (km)
Speed (km/s)
/
Latitude / Longitude
Inclination (degrees)
Orbital Period (minutes)
Azimuth
Elevation
Range (km)
Doppler Factor

Next 0 passes for location: London (51.5072 / 0.1276)

Sorry there are no passes over London.